Regional Weather Roundup
Issued by NWS

Home | Current Version | Previous Version | Graphics & Text | Print | Product List | Glossary On
Versions: 1 2 3 4 5 6 7 8 9 10 11 12 13 14 15 16 17 18 19 20 21 22 23 24 25 26 27 28 29 30 31 32 33 34 35 36 37 38 39 40 41 42 43 44 45 46 47 48 49 50
000
ASUS43 KLMK 221502
RWRKY
KENTUCKY REGIONAL WEATHER ROUNDUP
NATIONAL WEATHER SERVICE LOUISVILLE KY
1100 AM EDT TUE AUG 22 2017

NOTE "FAIR" INDICATES FEW OR NO CLOUDS BELOW 12,000 FEET
WITH NO SIGNIFICANT WEATHER AND/OR OBSTRUCTIONS TO VISIBILITY.

KYZ001>023-026-027-061>063-070>075-221600-
WESTERN AND SOUTH CENTRAL KENTUCKY

CITY           SKY/WX    TMP DP  RH WIND       PRES   REMARKS
PADUCAH        CLOUDY    83  73  72 W13       30.01R
HENDERSON      NOT AVBL
OWENSBORO      MOSUNNY   85  75  72 SW16      29.99S HX  93
HOPKINSVILLE   SUNNY     84  74  72 SW12      30.04R HX  91
BOWLING GREEN  CLOUDY    86  75  69 SW12      30.03S HX  95
GLASGOW        SUNNY     85  73  66 SW8       30.05S HX  91
$$

KYZ024-025-028>034-038-045-046-053-221600-
NORTH CENTRAL KENTUCKY

CITY           SKY/WX    TMP DP  RH WIND       PRES   REMARKS
LOUISVILLE/SDF PTSUNNY   87  74  64 SW14      29.98S HX  95
LOUISVILLE/LOU MOSUNNY   85  76  74 SW15      29.99S HX  94
FORT KNOX      SUNNY     86  73  66 SW10      29.99S HX  93
$$

KYZ035>037-039>044-047>052-055>060-089>105-221600-
NORTHEAST KENTUCKY

CITY           SKY/WX    TMP DP  RH WIND       PRES   REMARKS
LEXINGTON      MOSUNNY   83  72  69 SW12      30.03F
COVINGTON      PTSUNNY   83  75  77 SW14G23   29.97F HX  90
FRANKFORT      SUNNY     85  72  65 SW17      30.00F HX  91
$$

KYZ054-064>069-076>088-106>120-221600-
SOUTHEAST KENTUCKY

CITY           SKY/WX    TMP DP  RH WIND       PRES   REMARKS
JACKSON        SUNNY     81  71  71 VRB3      30.09F
LONDON         PTSUNNY   82  70  66 SW7       30.11S
SOMERSET       NOT AVBL
MIDDLESBORO    PTSUNNY   82  71  69 S5        30.13F
MONTICELLO     SUNNY     85  74  69 W15G22    30.11S HX  92
$$




USA.gov is the U.S. government's official web portal to all federal, state and local government web resources and services.